Location: Newark
(42.9378°N, 74.1847°W)
Time: 03:23:28
(UTC+00:00)

N. Korean satellite - Visible Passes

Search period start: 21 January 2020 00:00
Search period end: 31 January 2020 00:00
Orbit: 454 x 508 km, 97.2° (Epoch: 20 January)

Date Brightness Start Highest point End Pass type
(mag) Time Alt. Az. Time Alt. Az. Time Alt. Az.
21 Jan 7.1 10:37:00 10° NNE 10:40:29 60° E 10:44:01 10° S visible
21 Jan 9.6 22:47:27 10° SW 22:49:57 19° W 22:52:27 10° NW visible
22 Jan 8.7 10:11:50 10° NE 10:14:56 28° E 10:18:03 10° SSE visible
22 Jan 8.0 11:45:37 10° NNW 11:48:08 18° WNW 11:50:41 10° WSW visible
23 Jan 9.8 09:47:21 10° ENE 09:49:17 14° E 09:51:14 10° SE visible
23 Jan 7.1 11:19:31 10° N 11:22:47 36° WNW 11:26:07 10° SW visible
24 Jan 6.4 10:53:48 10° N 10:57:22 80° WNW 11:00:59 10° SSW visible
24 Jan 10.0 23:05:39 10° WSW 23:06:57 12° W 23:08:14 10° WNW visible
25 Jan 7.7 10:28:24 10° NNE 10:31:52 46° E 10:35:21 10° S visible
25 Jan 9.2 22:38:27 10° SSW 22:41:15 24° W 22:44:06 10° NW visible
26 Jan 9.1 10:03:24 10° NE 10:06:16 22° E 10:09:10 10° SSE visible
26 Jan 7.7 11:36:41 10° NNW 11:39:35 23° WNW 11:42:29 10° WSW visible
27 Jan 10.1 09:39:25 10° ENE 09:40:35 11° E 09:41:45 10° ESE visible
27 Jan 6.8 11:10:45 10° N 11:14:12 46° WNW 11:17:42 10° SSW visible
28 Jan 6.6 10:45:08 10° NNE 10:48:45 80° ESE 10:52:24 10° S visible
28 Jan 9.8 22:56:11 10° SW 22:58:13 15° W 23:00:15 10° NW visible
29 Jan 8.2 10:19:50 10° NNE 10:23:13 36° E 10:26:36 10° SSE visible
30 Jan 9.5 09:55:01 10° NE 09:57:35 18° E 10:00:10 10° SE visible
30 Jan 7.4 11:27:49 10° N 11:31:00 29° WNW 11:34:11 10° SW visible
